Location: Ferintosh
(52.7647°N, 112.9692°W)
Time: 22:52:56
(UTC+00:00)

A-11 Canister half - Pass Details

Date: 28 May 2024
Orbit: 1524 x 1683 km, 47.3° (Epoch: 19 June)

Event Time Altitude Azimuth Distance (km) Brightness Sun altitude
Rises 06:55:57 0° 271° (W) 4,710 11.7 -15.3°
Reaches altitude 10° 06:59:01 10° 268° (W) 3,743 11.1 -15.4°
Maximum altitude 07:08:17 61° 191° (SSW) 1,773 9.0 -15.5°
Drops below altitude 10° 07:17:51 10° 115° (ESE) 3,861 10.8 -15.6°
Sets 07:21:04 0° 112° (ESE) 4,867 11.4 -15.7°
